OPS 4682 DEB, 55118

Orbit data source: Space-Track

OPS 4682 DEB, 55118 is space debris in LEO originally from a launch on Sat, 03 Apr 1965 UTC launched from the Air Force Western Test Range (AFWTR). Debris objects in space refer to the collection of defunct objects orbiting the Earth. Examples of debris include non-operational satellites, rocket bodies, and fragments generated from explosions, collisions, or faulty payload assembly.

Loading next visibility...
Identifier
55118, 1965-027HH
Orbit
LEO
Country
Flag of USUS
Related business
Manufacturer
Unknown
Mission
Spacecraft
Bus & Motor
Unknown
Mass
Unknown
Launch date (UTC)
1965-04-03 (61 years ago)
Launch vehicle
Unknown
Launch site
Air Force Western Test Range (AFWTR)
Object type
Payload
Rocket body
Debris
Shape & HBR
Unknown shape, 1.1 m
Radar Cross Section
Medium (>0.1 m² and <1 m²)

Expand to show TLE details & history
Last TLE update: 6 days ago

TLE from 6 days ago
0 OPS 4682 DEB
1 55118U 65027HH  26232.16681086  .00000765  00000-0  25561-2 0  9990
2 55118  90.2388   5.1674 0032351 208.5826 329.2297 12.98798617600615
Epoch: 2026-08-20T04:00Z
TLE epoch observation values (Epoch: 2026-08-20T04:00:12.458Z)
Latitude
2.27898°
Longitude
156.61513°
Altitude
1,248.179 km
Speed
7.241 km/s
True Right ascension
12h 20m 42s
True Declination
2° 15' 58"
Sunlit
Object was in daylight at epoch
Visualization orbit readout
Latitude
Unknown
Longitude
Unknown
Altitude
Unknown
Speed
Unknown
Apparent Right ascension
Unknown
Apparent Declination
Unknown
Sunlit
N/A
Visualization observer readout
Local Sidereal Time
20:44:41
Azimuth
Unknown
Elevation
Unknown
Doppler factor
Unknown
Orbital elements
Apogee altitude
1,288.649 km
Perigee altitude
1,239.203 km
Semi-major axis
7,642.063 km
Eccentricity
0.00324
Inclination
90.2388°
RAAN
5.1674°
Arg. of periapsis
208.5826°
True anomaly
329.03938°
Mean anomaly
329.2297°
Eccentric anomaly
329.13461°
Mean motion
3.24883 °/min
Orbital period
110.81 mins
BSTAR
0.0025561
Loading maneuver chart data...
Computing Atmospheric mass density...
Loading historical data...
Loading historical data...
Loading historical data...
Loading historical data...
Loading historical data...
Loading historical data...
Loading historical data...

Documentation

Showing up to 5 results
|